Location: Feudal
(51.8839°N, 107.6105°W)
Time: 04:49:06
(UTC+00:00)

Envisat - Pass Details

Date: 27 January 2022
Orbit: 764 x 765 km, 98.2° (Epoch: 25 May)

Event Time Altitude Azimuth Distance (km) Brightness Sun altitude
Rises 11:58:46 0° 16° (NNE) 3,245 6.5 -27.3°
Reaches altitude 10° 12:01:07 10° 20° (NNE) 2,314 5.7 -27.0°
Maximum altitude 12:06:11 63° 102° (ESE) 855 3.4 -26.2°
Drops below altitude 10° 12:11:12 10° 183° (S) 2,298 5.4 -25.4°
Sets 12:13:32 0° 187° (S) 3,220 6.1 -25.1°
